Location: Devore Heights
(34.2372°N, 117.4156°W)
Time: 02:23:55
(UTC+00:00)

SR - Pass Details

Date: 22 September 2024
Orbit: 578 x 855 km, 66.7° (Epoch: 02 October)

Event Time Altitude Azimuth Distance (km) Brightness Sun altitude
Rises 04:23:33 0° 336° (NNW) 3,003 ? -32.2°
Reaches altitude 10° 04:25:48 10° 339° (NNW) 2,129 ? -32.7°
Enters shadow 04:27:43 24° 343° (NNW) 1,422 ? -33.0°
Maximum altitude 04:30:38 71° 63° (ENE) 768 - -33.6°
Drops below altitude 10° 04:35:53 10° 147° (SSE) 2,302 - -34.5°
Sets 04:38:23 0° 150° (SSE) 3,268 - -35.0°
